Weather History for Middlesboro, KY

Change the Weather History Date:

Sunday, February 17, 2013

  Actual Average (KLOZ) Record (KLOZ)
Temperature  
Mean Temperature 32 °F 40 °F  
Max Temperature 42 °F 50 °F 71 °F (1975)
Min Temperature 23 °F 30 °F -8 °F (1958)
Degree Days  
Heating Degree Days 32 25  
Month to date heating degree days 454  
Since 1 July heating degree days 3017  
Cooling Degree Days 0 0  
Month to date cooling degree days 0  
Year to date cooling degree days 0  
Moisture  
Dew Point 16 °F    
Average Humidity 59    
Maximum Humidity 86    
Minimum Humidity 31    
Precipitation  
Precipitation 0.00 in 0.13 in 3.07 in (1956)
Month to date precipitation 2.21  
Year to date precipitation 5.75  
Sea Level Pressure  
Sea Level Pressure 30.19 in    
Wind  
Wind Speed 5 mph (NW)    
Max Wind Speed 15 mph    
Max Gust Speed 24 mph    
Visibility 10 miles    
Events      
T = Trace of Precipitation, MM = Missing Value Source: NWS Daily Summary

Daily Weather History Graph

Daily Weather History Graph

Search for Another Location

Airport:

Trip Planner

Search our weather history database for the weather conditions in past years. The results will help you decide how hot, cold, wet, or windy it might be!

Date:

Astronomy

Feb. 17, 2013 Rise Set
Actual Time 6:20 AM CST 5:17 PM CST
Civil Twilight 5:54 AM CST 5:44 PM CST
Nautical Twilight 5:23 AM CST 6:14 PM CST
Astronomical Twilight 4:53 AM CST 6:44 PM CST
Moon 10:25 AM CST (2/17) 12:00 AM CST (2/17)
Length of Visible Light 11h 50m
Length of Day
10h 57m
Waxing Crescent, 49% of the Moon is Illuminated
Feb 17
Waxing Crescent
Feb 17
First Quarter
Feb 25
Full
Mar 4
Last Quarter
Mar 11
New

Hourly Weather History & Observations

Time (CST) Temp. Windchill Dew Point Humidity Pressure Visibility Wind Dir Wind Speed Gust Speed Precip Events Conditions
12:15 AM 26.6 °F 20.0 °F 12.2 °F 55% 30.11 in 10.0 mi NW 5.8 mph 17.3 mph N/A   Mostly Cloudy
12:35 AM 26.6 °F 19.1 °F 12.2 °F 55% 30.11 in 10.0 mi NNW 6.9 mph 16.1 mph N/A   Mostly Cloudy
12:55 AM 26.6 °F 17.5 °F 14.0 °F 59% 30.11 in 10.0 mi NNW 9.2 mph - N/A   Overcast
1:15 AM 26.6 °F 18.2 °F 14.0 °F 59% 30.12 in 10.0 mi North 8.1 mph - N/A   Overcast
1:35 AM 26.6 °F 18.2 °F 14.0 °F 59% 30.12 in 10.0 mi NW 8.1 mph 16.1 mph N/A   Overcast
1:55 AM 26.6 °F 19.1 °F 14.0 °F 59% 30.12 in 10.0 mi NW 6.9 mph - N/A   Overcast
2:15 AM 26.6 °F 22.6 °F 14.0 °F 59% 30.12 in 10.0 mi NNW 3.5 mph - N/A   Overcast
2:35 AM 26.6 °F 22.6 °F 14.0 °F 59% 30.11 in 10.0 mi NW 3.5 mph - N/A   Mostly Cloudy
2:55 AM 24.8 °F - 14.0 °F 64% 30.11 in 10.0 mi Calm Calm - N/A   Scattered Clouds
3:15 AM 24.8 °F 19.1 °F 14.0 °F 64% 30.12 in 10.0 mi WNW 4.6 mph - N/A   Clear
3:35 AM 24.8 °F - 14.0 °F 64% 30.12 in 10.0 mi Calm Calm - N/A   Clear
3:55 AM 24.8 °F - 14.0 °F 64% 30.12 in 10.0 mi Calm Calm - N/A   Scattered Clouds
4:15 AM 24.8 °F - 14.0 °F 64% 30.13 in 10.0 mi Calm Calm - N/A   Mostly Cloudy
4:35 AM 24.8 °F - 14.0 °F 64% 30.13 in 10.0 mi Calm Calm - N/A   Overcast
4:55 AM 24.8 °F 16.9 °F 14.0 °F 64% 30.13 in 10.0 mi West 6.9 mph - N/A   Mostly Cloudy
5:15 AM 24.8 °F - 15.8 °F 69% 30.14 in 10.0 mi Calm Calm - N/A   Mostly Cloudy
5:35 AM 24.8 °F 16.9 °F 14.0 °F 64% 30.15 in 10.0 mi WNW 6.9 mph - N/A   Mostly Cloudy
5:55 AM 24.8 °F 19.1 °F 14.0 °F 64% 30.15 in 10.0 mi WNW 4.6 mph - N/A   Scattered Clouds
6:15 AM 24.8 °F 20.5 °F 14.0 °F 64% 30.16 in 10.0 mi NW 3.5 mph - N/A   Clear
6:35 AM 24.8 °F - 15.8 °F 69% 30.16 in 10.0 mi Calm Calm - N/A   Clear
6:55 AM 24.8 °F 20.5 °F 14.0 °F 64% 30.17 in 10.0 mi WNW 3.5 mph - N/A   Clear
7:15 AM 24.8 °F - 15.8 °F 69% 30.18 in 10.0 mi Calm Calm - N/A   Scattered Clouds
7:35 AM 26.6 °F - 15.8 °F 64% 30.19 in 10.0 mi Calm Calm - N/A   Mostly Cloudy
7:55 AM 26.6 °F 18.2 °F 15.8 °F 64% 30.20 in 10.0 mi WNW 8.1 mph - N/A   Overcast
8:15 AM 28.4 °F 20.4 °F 15.8 °F 59% 30.21 in 10.0 mi WNW 8.1 mph 16.1 mph N/A   Overcast
8:35 AM 28.4 °F 19.1 °F 15.8 °F 59% 30.21 in 10.0 mi WNW 10.4 mph - N/A   Overcast
8:55 AM 28.4 °F 21.2 °F 15.8 °F 59% 30.21 in 10.0 mi West 6.9 mph - N/A   Overcast
9:15 AM 30.2 °F 23.4 °F 15.8 °F 55% 30.22 in 10.0 mi WNW 6.9 mph - N/A   Overcast
9:35 AM 30.2 °F 23.4 °F 17.6 °F 60% 30.22 in 10.0 mi West 6.9 mph - N/A   Scattered Clouds
9:55 AM 30.2 °F 21.9 °F 17.6 °F 60% 30.23 in 10.0 mi NW 9.2 mph - N/A   Scattered Clouds
10:15 AM 33.8 °F 28.6 °F 17.6 °F 52% 30.23 in 10.0 mi WNW 5.8 mph 16.1 mph N/A   Scattered Clouds
10:35 AM 33.8 °F 25.8 °F 17.6 °F 52% 30.23 in 10.0 mi WNW 10.4 mph 24.2 mph N/A   Scattered Clouds
10:55 AM 35.6 °F 29.2 °F 17.6 °F 48% 30.23 in 10.0 mi NW 8.1 mph 21.9 mph N/A   Scattered Clouds
11:15 AM 35.6 °F 27.1 °F 17.6 °F 48% 30.22 in 10.0 mi NW 12.7 mph 18.4 mph N/A   Scattered Clouds
11:35 AM 35.6 °F 27.1 °F 17.6 °F 48% 30.22 in 10.0 mi NNW 12.7 mph 16.1 mph N/A   Scattered Clouds
11:55 AM 35.6 °F 28.6 °F 15.8 °F 44% 30.21 in 10.0 mi NNW 9.2 mph 21.9 mph N/A   Scattered Clouds
12:15 PM 37.4 °F 28.5 °F 17.6 °F 45% 30.20 in 10.0 mi NNW 15.0 mph 23.0 mph N/A   Clear
12:35 PM 37.4 °F 34.9 °F 17.6 °F 45% 30.20 in 10.0 mi WNW 3.5 mph - N/A   Scattered Clouds
12:55 PM 39.2 °F 33.6 °F 17.6 °F 42% 30.19 in 10.0 mi NNW 8.1 mph 17.3 mph N/A   Scattered Clouds
1:15 PM 39.2 °F 33.0 °F 17.6 °F 42% 30.18 in 10.0 mi North 9.2 mph 18.4 mph N/A   Scattered Clouds
1:35 PM 39.2 °F 33.6 °F 17.6 °F 42% 30.18 in 10.0 mi WNW 8.1 mph 19.6 mph N/A   Clear
1:55 PM 39.2 °F 33.6 °F 17.6 °F 42% 30.18 in 10.0 mi North 8.1 mph - N/A   Clear
2:15 PM 41.0 °F 34.7 °F 15.8 °F 36% 30.18 in 10.0 mi WNW 10.4 mph - N/A   Clear
2:35 PM 41.0 °F 34.7 °F 14.0 °F 33% 30.18 in 10.0 mi West 10.4 mph 17.3 mph N/A   Clear
2:55 PM 42.8 °F 37.0 °F 15.8 °F 34% 30.18 in 10.0 mi NNW 10.4 mph 17.3 mph N/A   Clear
3:15 PM 41.0 °F 34.7 °F 14.0 °F 33% 30.18 in 10.0 mi North 10.4 mph 18.4 mph N/A   Clear
3:35 PM 41.0 °F 33.5 °F 12.2 °F 31% 30.18 in 10.0 mi NNW 13.8 mph 18.4 mph N/A   Clear
3:55 PM 39.2 °F 35.0 °F 14.0 °F 36% 30.18 in 10.0 mi NW 5.8 mph 16.1 mph N/A   Clear
4:15 PM 39.2 °F 34.2 °F 14.0 °F 36% 30.19 in 10.0 mi NW 6.9 mph - N/A   Clear
4:35 PM 37.4 °F 32.8 °F 12.2 °F 36% 30.19 in 10.0 mi WNW 5.8 mph - N/A   Clear
4:55 PM 37.4 °F 33.8 °F 12.2 °F 36% 30.19 in 10.0 mi NNW 4.6 mph - N/A   Clear
5:15 PM 35.6 °F - 14.0 °F 41% 30.19 in 10.0 mi Calm Calm - N/A   Clear
5:35 PM 35.6 °F - 12.2 °F 38% 30.20 in 10.0 mi Calm Calm - N/A   Clear
5:55 PM 33.8 °F - 19.4 °F 56% 30.21 in 10.0 mi Calm Calm - N/A   Clear
6:15 PM 30.2 °F - 19.4 °F 64% 30.20 in 10.0 mi Calm Calm - N/A   Clear
6:35 PM 30.2 °F - 19.4 °F 64% 30.21 in 10.0 mi Calm Calm - N/A   Clear
6:55 PM 30.2 °F - 19.4 °F 64% 30.21 in 10.0 mi Calm Calm - N/A   Clear
7:15 PM 28.4 °F - 19.4 °F 69% 30.22 in 10.0 mi Calm Calm - N/A   Clear
7:35 PM 26.6 °F - 19.4 °F 74% 30.22 in 10.0 mi Calm Calm - N/A   Clear
7:55 PM 26.6 °F - 19.4 °F 74% 30.22 in 10.0 mi Calm Calm - N/A   Clear
8:15 PM 26.6 °F - 19.4 °F 74% 30.23 in 10.0 mi Calm Calm - N/A   Clear
8:35 PM 26.6 °F - 21.2 °F 80% 30.23 in 10.0 mi Calm Calm - N/A   Clear
8:55 PM 26.6 °F - 19.4 °F 74% 30.24 in 7.0 mi Calm Calm - N/A   Clear
9:15 PM 24.8 °F - 19.4 °F 80% 30.24 in 10.0 mi Calm Calm - N/A   Clear
9:35 PM 24.8 °F - 19.4 °F 80% 30.24 in 10.0 mi Calm Calm - N/A   Clear
9:55 PM 24.8 °F - 19.4 °F 80% 30.24 in 10.0 mi Calm Calm - N/A   Clear
10:15 PM 24.8 °F - 19.4 °F 80% 30.24 in 10.0 mi Calm Calm - N/A   Clear
10:35 PM 24.8 °F - 21.2 °F 86% 30.24 in 10.0 mi Calm Calm - N/A   Clear
10:55 PM 24.8 °F - 19.4 °F 80% 30.23 in 10.0 mi Calm Calm - N/A   Clear
11:15 PM 23.0 °F - 19.4 °F 86% 30.24 in 10.0 mi Calm Calm - N/A   Clear
11:35 PM 23.0 °F - 19.4 °F 86% 30.24 in 10.0 mi Calm Calm - N/A   Clear
11:55 PM 23.0 °F - 19.4 °F 86% 30.24 in 10.0 mi Calm Calm - N/A   Clear